loading
DOY 175 | 2024-06-23T11:09:59Z
Showing default

DROID-001, 56965

Orbit data source: Space-Track

DROID-001, 56965 is a payload satellite owned by Turion Space (US) in LEO that was launched on Mon, 12 Jun 2023 UTC via a Falcon 9 launch vehicle from the Air Force Western Test Range (AFWTR). Payloads include a variety of satellites, spacecraft, and rockets equipped with specific instruments for various scientific and technological missions. These include communications satellites like Starlink; space stations such as the ISS; scientific satellites like the Hubble; Earth observation satellites from companies like Planet Labs, Umbra, and HawkEye 360; GPS; miniature CubeSats for education and research; and military/defense satellites.

Loading next visibility...
Loading greatness...
DROID-001 details
NORAD ID56965
COSPAR ID
2023-084AK
Orbit
LEO
Last TLE update13 hours ago
Origin
Flag of USTurion Space (US)
ManufacturerNanoAvionics
BusCubesat MP42H
MotorUnknown
Mass32 kg wet, 32 kg dry
Launch date (UTC)
2023-06-12 (1 year ago)
Launch vehicle
Falcon 9
Launch site
Air Force Western Test Range (AFWTR)
Object type
Payload
Rocket body
Debris
Radar Cross SectionMedium (>0.1 m² and <1 m²)
Predictive object data (real-time)
Latitude34.82485°
Longitude-120.43493°
Altitude507.866 km
Speed7.61 km/s
Apparent Right ascension09h 03m 40s
Apparent Declination0° 54' 10"
Sunlit
Object is in daylight
Predictive observer data (real-time)
Local Sidereal Time22:17:58
Azimuth28.119° NE
Elevation-47.48°
Doppler factor1
Orbital elements
Apogee500.783 km
Perigee486.509 km
Semi-major axis6,871.783 km
Eccentricity0.0010386
Inclination97.5413°
RAAN294.0994°
Arg. of periapsis351.6031°
True anomaly8.52062°
Mean anomaly8.503°
Mean motion3.81012 °/min
BSTAR0.00045088
Period94.49 mins
Definitive object data (Epoch: 2024-06-22T21:55:05.724Z)
Latitude-0.00002°
Longitude53.75577°
Altitude492.706 km
Speed7.622 km/s
True Right ascension19h 36m 23s
True Declination0° 00' 00"
Sunlit
Object was in full shadow at TLE epoch
TLE from 13 hours ago
0 DROID-001
1 56965U 23084AK  24174.91326070  .00010564  00000-0  45088-3 0  9998
2 56965  97.5413 294.0994 0010386 351.6031   8.5030 15.23039727 57036
Epoch: 2024-06-22T21:55Z
No data available

DROID-001 Visibility forecast

Observer location: 39.9160978°, -105.1181434, 0m alt.

DROID-001 is not visible in the next 10 days
Span
Click to sort rows by Start time (UTC) header in descending order
Start Az.
Max El. time (UTC)
Max El. Az.
Max El.
End time (UTC)
End Az.